C/2004 F2 (LINEAR)                                                    

Epoch 2003 Dec. 27.0 TT = JDT 2453000.5  

T 2003 Dec. 26.64622 TT                                 Nakano

q   1.4304287            (2000.0)            P               Q

z  +0.0065771      Peri.  317.14283     -0.10823781     -0.42758209

 +/-0.0000155      Node   248.27367     -0.42303449     -0.79715063

e   0.9905919      Incl.  104.96080     -0.89962570     +0.42629147

From 137 observations 2004 Mar. 25-July 22, mean residual 0".63.

   (1/a)org.= +0.006482, (1/a)fut.= +0.006938 (+/-0.000015), Q= 6.

Residuals in seconds of arc 

2004/                     040329 704  1.7-  0.8-    040511 699  0.4-  1.1-  

040325 704  1.2+  0.2-    040329 704  0.6-  0.1+    040511 699  0.4-  0.3+  

040325 704  0.3+  1.4-    040329 926 (0.5-  2.6-)   040511 104  0.5+  0.3-  

040325 704  0.1-  1.1-    040329 926  0.0   0.3-    040511 104  1.4-  0.3+  

040325 704  0.1+  0.1+    040329 926  1.1-  0.6+    040511 104  0.2+  0.9+  

040325 704  1.3+  0.4+    040329 673  0.4+  0.1-    040514 360  0.2+  0.1-  

040326 704  0.3-  1.1-    040329 673  0.4+  0.1-    040514 360  0.1+  0.1-  

040326 704  0.8+  0.3-    040329 673  0.3+  0.3+    040514 360  0.2-  0.3+  

040326 704  0.8+  0.2-    040329 673  0.2+  0.2+    040515 213  0.2+  0.2+  

040326 926  0.7+  0.3-    040330 372  1.5+  0.3+    040515 213  0.5+  0.4-  

040326 926  0.3+  0.3+    040331 360  0.5+  0.7+    040517 215  0.2-  0.2+  

040326 926  0.4+  1.0+    040331 360  0.1+  0.1-    040517 215  0.1+  0.3-  

040327 854 (2.5-  1.7-)   040331 360  0.1-  0.0     040520 104  0.2+  0.4+  

040327 854  1.0-  1.4+    040401 704  1.9-  1.3-    040520 104  0.2-  0.0   

040327 854 (0.5+  2.5-)   040401 704  0.4+  0.5-    040520 104  0.1-  0.4+  

040327 704  0.6-  0.6-    040401 704  0.2+  0.8+    040524 673  0.1+  0.5+  

040327 704  0.5+  0.0     040415 704  0.4+  0.5-    040524 673  0.0   0.6+  

040327 704  0.2+  0.3-    040415 704  0.8+  0.2+    040524 673  0.0   0.5+  

040327 704  0.0   0.4-    040415 704  0.8-  0.1+    040524 673  0.0   0.1+  

040327 704  0.0   0.2-    040415 704  0.8+  0.6+    040524 360  0.1-  0.1+  

040327 704  0.2+  0.9-    040415 704  0.4+  0.1-    040524 360  0.3+  0.1+  

040327 704  0.6-  0.8+    040421 204  0.1+  0.2+    040524 360  0.1-  0.0   

040327 704  0.7+  0.2-    040421 204  0.4-  0.2+    040608 704  0.1-  0.4+  

040327 704  0.0   0.5-    040421 204  0.1-  0.0     040608 704  0.5+  0.4+  

040327 704  0.1+  0.3+    040423 360  0.5-  0.5-    040608 704  0.1+  0.3-  

040328 704  1.0-  1.9+    040423 360  0.1-  0.0     040609 213  0.1-  1.0+  

040328 704  0.5+  1.1+    040423 360  0.0   0.1+    040612 704  0.7+  1.0+  

040328 704  0.4-  0.5+    040424 170  0.1+  0.1+    040612 704  0.1+  0.0   

040328 704  0.2-  1.3+    040424 170  0.0   0.2-    040612 704  0.0   0.6-  

040328 704  1.4-  0.6-    040424 349  0.3-  0.1+    040613 360  0.4+  0.1+  

040328 704  0.7-  1.8+    040424 349  0.0   0.1-    040613 360  0.3+  0.0   

040328 704  0.1-  0.3-    040424 349  0.5+  0.4-    040613 360  0.5+  0.1+  

040328 704  0.2+  0.2-    040425 170  0.7-  0.1+    040709 213  0.9+  0.5-  

040328 704  1.1+  0.6+    040425 170  0.8-  0.6-    040709 213  1.3+  0.1-  

040328 704  0.6-  1.5+    040425 170  0.8-  0.7-    040709 941 (2.5+  0.6-) 

040328 704  0.9-  0.2-    040428 360  0.0   0.3+    040709 941  1.7+  1.3-  

040328 704  0.3-  0.1+    040428 360  0.1-  0.6+    040709 941  0.6+  0.8-  

040328 704  0.1+  0.8+    040428 360  0.1+  0.4+    040709 941  0.9+  0.1-  

040328 704  0.9-  0.2-    040501 699  1.2+  0.6+    040709 941  0.1-  0.6-  

040329 611  0.2-  0.6-    040501 699  0.7-  1.8-    040717 941  1.4-  0.0   

040329 611  0.3+  1.1-    040501 699  0.3+  0.6-    040717 941  1.4-  0.2+  

040329 704  0.5-  0.5-    040501 699  0.1-  0.1-    040717 941  1.0-  0.6+  

040329 704  0.1+  1.1-    040511 704  0.1+  0.5-    040717 941  0.6-  1.2+  

040329 704  0.4+  0.1-    040511 704  0.6+  0.4+    040717 941  0.6-  1.3+  

040329 704  0.2-  0.9-    040511 704  0.6-  0.0     040722 941  0.5-  0.8-  

040329 704 (2.3+  0.1+)   040511 704  0.4-  0.7-    040722 941  0.4-  0.7-  

040329 704  0.6+  0.4+    040511 704  0.3+  0.3+    040722 941  0.2-  1.0-  

040329 704 (0.8+  2.9-)   040511 699  0.2+  0.4+                            

040329 704 (0.3-  2.0-)   040511 699  0.2-  0.2-                            

         **** Don't distribute anyone except personal use only ****

                (C) Copyright 2004 OAA/ComputingSection

write mail from CFAD0::NAKANO on 2004-08-04 23:10:27(JST).

---------------------------------------------------------------------------

    Syuichi Nakano, P. O. Box No. 32, Sumoto, Hyogo-Ken, 656-8691 Japan

     An Associate of the Minor Planet Center   snakano@cfa.harvard.edu

         http://www.oaa.gr.jp/   08-04-2004, 23:27:51 +09:00 (JST)

               OS/2 and Digital UNIX in Operating Systems

             **** Please reply ONLY to nakano@oaa.gr.jp ****







    C/2004 F2 (LINEAR)                                                    

Epoch 2003 Dec. 27.0 TT = JDT 2453000.5  

T 2003 Dec. 26.65021 TT                                 Nakano

q   1.4304870            (2000.0)            P               Q

z  +0.0065281      Peri.  317.14697     -0.10824980     -0.42757653

 +/-0.0000272      Node   248.27443     -0.42309768     -0.79712063

e   0.9906616      Incl.  104.96165     -0.89959454     +0.42635315

P 1896 years

From 123 observations 2004 Mar. 25-June 13, mean residual 0".59.

   (1/a)org.= +0.006438, (1/a)fut.= +0.006889 (+/-0.000027), Q= 5.

Residuals in seconds of arc 

2004/                     040329 704  0.2-  0.9-    040501 699  0.6-  1.8-  

040325 704  1.1+  0.2-    040329 704 (2.3+  0.1+)   040501 699  0.4+  0.6-  

040325 704  0.2+  1.4-    040329 704  0.6+  0.4+    040501 699  0.0   0.1-  

040325 704  0.1-  1.1-    040329 704 (0.8+  2.9-)   040511 704  0.1+  0.5-  

040325 704  0.0   0.1+    040329 704 (0.3-  2.0-)   040511 704  0.6+  0.4+  

040325 704  1.3+  0.4+    040329 704  1.7-  0.8-    040511 704  0.6-  0.0   

040326 704  0.3-  1.1-    040329 704  0.6-  0.1+    040511 704  0.4-  0.7-  

040326 704  0.8+  0.3-    040329 926 (0.5-  2.6-)   040511 704  0.3+  0.3+  

040326 704  0.8+  0.2-    040329 926  0.0   0.3-    040511 699  0.2+  0.4+  

040326 926  0.7+  0.3-    040329 926  1.1-  0.6+    040511 699  0.2-  0.1-  

040326 926  0.3+  0.3+    040329 673  0.4+  0.1-    040511 699  0.4-  1.1-  

040326 926  0.4+  1.0+    040329 673  0.4+  0.1-    040511 699  0.4-  0.3+  

040327 854 (2.5-  1.7-)   040329 673  0.3+  0.4+    040511 104  0.5+  0.2-  

040327 854  1.0-  1.4+    040329 673  0.2+  0.3+    040511 104  1.4-  0.3+  

040327 854 (0.5+  2.5-)   040330 372  1.5+  0.3+    040511 104  0.2+  0.9+  

040327 704  0.6-  0.6-    040331 360  0.5+  0.7+    040514 360  0.1+  0.1-  

040327 704  0.5+  0.0     040331 360  0.1+  0.1-    040514 360  0.0   0.1-  

040327 704  0.1+  0.3-    040331 360  0.1-  0.0     040514 360  0.2-  0.3+  

040327 704  0.1-  0.4-    040401 704  1.8-  1.3-    040515 213  0.2+  0.2+  

040327 704  0.0   0.2-    040401 704  0.4+  0.5-    040515 213  0.5+  0.4-  

040327 704  0.2+  0.9-    040401 704  0.2+  0.8+    040517 215  0.2-  0.1+  

040327 704  0.6-  0.8+    040415 704  0.5+  0.4-    040517 215  0.0   0.3-  

040327 704  0.7+  0.2-    040415 704  0.9+  0.3+    040520 104  0.1+  0.4+  

040327 704  0.0   0.5-    040415 704  0.7-  0.1+    040520 104  0.3-  0.0   

040327 704  0.1+  0.3+    040415 704  0.9+  0.6+    040520 104  0.2-  0.4+  

040328 704  1.0-  1.9+    040415 704  0.5+  0.1-    040524 673  0.1+  0.4+  

040328 704  0.5+  1.1+    040421 204  0.2+  0.2+    040524 673  0.1-  0.6+  

040328 704  0.4-  0.5+    040421 204  0.3-  0.2+    040524 673  0.1-  0.4+  

040328 704  0.2-  1.3+    040421 204  0.0   0.1+    040524 673  0.1-  0.0   

040328 704  1.4-  0.6-    040423 360  0.4-  0.4-    040524 360  0.2-  0.0   

040328 704  0.7-  1.8+    040423 360  0.1+  0.1+    040524 360  0.2+  0.1+  

040328 704  0.1-  0.3-    040423 360  0.1+  0.1+    040524 360  0.2-  0.1-  

040328 704  0.2+  0.2-    040424 170  0.2+  0.1+    040608 704  0.3-  0.2+  

040328 704  1.1+  0.6+    040424 170  0.1+  0.1-    040608 704  0.4+  0.2+  

040328 704  0.6-  1.5+    040424 349  0.2-  0.1+    040608 704  0.0   0.5-  

040328 704  0.9-  0.2-    040424 349  0.2+  0.1-    040609 213  0.3-  0.8+  

040328 704  0.3-  0.1+    040424 349  0.6+  0.4-    040612 704  0.5+  0.7+  

040328 704  0.1+  0.8+    040425 170  0.6-  0.1+    040612 704  0.0   0.3-  

040328 704  1.0-  0.2-    040425 170  0.7-  0.5-    040612 704  0.1-  0.9-  

040329 611  0.2-  0.6-    040425 170  0.7-  0.6-    040613 360  0.2+  0.2-  

040329 611  0.3+  1.1-    040428 360  0.1+  0.3+    040613 360  0.2+  0.3-  

040329 704  0.5-  0.5-    040428 360  0.0   0.6+    040613 360  0.3+  0.2-  

040329 704  0.1+  1.1-    040428 360  0.2+  0.4+                            

040329 704  0.4+  0.1-    040501 699  1.3+  0.7+                            



NAKANO

         **** Don't distribute anyone except personal use only ****

                (C) Copyright 2004 OAA/ComputingSection

write mail from CFAD0::NAKANO on 2004-07-03 22:20:30(JST).

 

   C/2004 F2 (LINEAR)                                                    

T 2003 Dec. 26.65373 TT                                 Nakano

q   1.4305618            (2000.0)            P               Q

z  +0.0065000      Peri.  317.15188     -0.10827064     -0.42756338

 +/-0.0000517      Node   248.27531     -0.42316967     -0.79708808

e   0.9907013      Incl.  104.96206     -0.89955817     +0.42642719

From 109 observations 2004 Mar. 25-May 24.



NAKANO

         **** Don't distribute anyone except personal use only ****

                (C) Copyright 2004 OAA/ComputingSection

write mail from CFAD0::NAKANO on 2004-06-02 06:08:27(JST).

 



◎C/2004 F2の軌道と予報位置です



